Time,B instrument,Bx,By,Bz,sigma B,Ion instrument,Status,Tp_par,Tp_perp,carrot,r_sun,clat,clong,earth_he_angle,n_p,vp_x,vp_y,vp_z,vth_p_par,vth_p_perp
1980-01-06 00:00:18,1,-3.82308,5.86154,5.3,0.381681,1,1,28342.5,48225.6,1690,0.78833675,4.3866882,173.13599,293.59302,2.61872,381.484,25.9743,68.6262,21.631,28.2161
1980-01-06 00:00:58,1,-4.40769,4.9,5.67692,0.537251,1,1,29794.8,49663.8,1690,0.78833675,4.3866873,173.13208,293.59302,2.92463,376.163,17.7522,70.3076,22.1783,28.6337
1980-01-06 00:01:39,1,-5.49167,4.38333,5.18333,0.797,1,1,31666.7,50701.7,1690,0.78834248,4.3866119,173.12427,293.59302,3.56005,359.046,12.6988,57.6636,22.8644,28.9314
1980-01-06 00:03:00,1,-6.1,6.025,2.1,0.286138,1,1,26508.2,48846.3,1690,0.78835404,4.3864603,173.11255,293.59302,2.99065,365.374,40.2518,31.939,20.9193,28.3971
1980-01-06 00:03:40,1,-5.56923,4.73846,5.05385,1.29528,1,1,22697.0,37912.8,1690,0.78835404,4.3864603,173.10474,293.59302,2.69694,363.897,4.28304,67.4146,19.3572,25.0179
1980-01-06 00:04:21,1,-5.59231,5.93846,3.36923,1.70176,1,1,19921.3,37483.2,1690,0.78835982,4.386385,173.10083,293.59302,2.83533,375.794,20.9351,69.3352,18.1349,24.8758
1980-01-06 00:05:01,1,-3.51538,4.26923,5.55385,3.8274,1,1,30039.7,49496.8,1690,0.7883656,4.3863096,173.09326,293.59326,3.4467,381.253,23.1805,69.7144,22.2693,28.5855
1980-01-06 00:05:42,1,-3.32,3.22667,7.23333,1.30043,1,1,36907.9,66498.9,1690,0.7883656,4.3863096,173.08936,293.59326,3.23278,401.595,1.67765,77.9093,24.6841,33.1333
1980-01-06 00:06:22,1,-5.72308,5.05385,4.61538,0.820521,1,1,26594.6,68020.0,1690,0.78837138,4.3862333,173.08154,293.59326,2.98864,368.68,16.3944,60.1579,20.9534,33.5101
1980-01-06 00:07:03,1,-5.38571,6.81429,3.29286,1.13715,1,1,25477.6,52794.7,1690,0.78837717,4.386158,173.07373,293.59326,4.32448,374.545,42.8477,37.3058,20.5087,29.5225
1980-01-06 00:07:43,1,-5.54615,7.01538,2.7,1.55042,1,1,25907.2,45111.6,1690,0.78837717,4.386158,173.06982,293.59326,3.00939,372.046,32.8111,50.8025,20.6808,27.2899
1980-01-06 00:08:24,1,-5.28462,7.63846,2.57692,1.01795,1,1,27454.9,40768.5,1690,0.78838289,4.3860826,173.06201,293.59326,3.24558,376.73,43.822,46.5383,21.2896,25.943
1980-01-06 00:09:04,1,-1.6,9.67692,-1.80769,0.992755,1,1,45903.6,44755.5,1690,0.78838867,4.3860064,173.05811,293.59326,3.09669,406.424,59.7671,-3.20816,27.5284,27.182
1980-01-06 00:09:45,1,-1.64,9.40667,-2.69333,1.10919,1,1,33111.5,44154.2,1690,0.78838867,4.3860064,173.05029,293.59326,3.35083,413.873,61.0256,-16.5345,23.3802,26.9988
1980-01-06 00:10:25,1,-3.25714,9.0,-2.35,0.701493,1,1,40385.4,53210.1,1690,0.78839445,4.385931,173.04663,293.59351,3.8775,386.719,53.4782,-10.0181,25.8208,29.6384
1980-01-06 00:11:06,1,-3.63077,8.54615,-3.21538,1.10443,1,1,36262.9,58412.5,1690,0.78840023,4.3858557,173.03882,293.59351,3.57236,394.861,58.3314,-16.3737,24.4675,31.0535
1980-01-06 00:11:46,1,-7.20769,4.61538,-4.82308,0.442826,1,1,28057.2,38347.7,1690,0.78840023,4.3858547,173.03101,293.59351,3.10078,355.865,23.8797,-32.5066,21.5219,25.161
1980-01-06 00:12:27,1,-7.03846,4.47692,-5.03077,0.734927,1,1,29701.2,44789.1,1690,0.78840601,4.3857794,173.0271,293.59351,3.11515,361.031,20.6206,-43.4103,22.1434,27.1922
1980-01-06 00:13:07,1,-7.52308,3.52308,-5.10769,0.685867,1,1,34203.5,45155.4,1690,0.7884118,4.385704,173.01929,293.59351,3.33873,355.049,20.2369,-34.0978,23.7625,27.3031
1980-01-06 00:13:48,1,-6.23846,2.65385,-6.99231,0.498637,1,1,22562.3,51592.4,1690,0.7884118,4.385704,173.01538,293.59351,3.25889,367.717,10.048,-60.2235,19.2997,29.1844
1980-01-06 00:14:28,1,-5.31538,5.96923,-5.79231,0.985036,1,1,31325.1,58612.2,1690,0.78841758,4.3856277,173.00757,293.59351,3.56084,377.211,28.145,-51.1922,22.7407,31.1066
1980-01-06 00:15:09,1,-4.66429,5.3,-6.83571,0.733109,1,1,32445.6,45232.6,1690,0.78842336,4.3855524,173.00391,293.59375,2.96726,381.569,27.2937,-51.9431,23.1439,27.3265
1980-01-06 00:15:49,1,-4.05714,2.18571,-8.65,0.616814,1,1,31075.0,47973.6,1690,0.78842336,4.3855524,172.99609,293.59375,3.05173,385.803,-5.43038,-70.8166,22.6497,28.1423
1980-01-06 00:16:30,-1,nan,nan,nan,nan,1,4,nan,nan,1690,0.78842908,4.3854771,172.98828,293.59375,nan,nan,nan,nan,nan,nan
1980-01-06 00:17:10,1,-3.52143,8.34286,-2.22143,2.48426,1,1,37807.5,56108.5,1690,0.78843486,4.3854008,172.98438,293.59375,3.49503,391.304,57.2538,-2.17818,24.9831,30.4349
1980-01-06 00:17:51,1,-3.44667,1.20667,-8.68667,2.25306,1,1,20982.1,45959.8,1690,0.78843486,4.3854008,172.97656,293.59375,3.31526,391.297,-7.87766,-60.4133,18.6115,27.5453
1980-01-06 00:18:31,1,-3.55333,2.37333,-8.84,0.705345,1,1,24372.9,29937.7,1690,0.78844064,4.3853254,172.97266,293.59375,3.22221,392.944,-7.72279,-61.2563,20.0591,22.2314
1980-01-06 00:19:12,1,-2.0,5.97143,-7.63571,1.681,1,1,101602.0,30247.2,1690,0.78844643,4.3852501,172.96484,293.59375,3.29479,414.637,42.8103,-51.7043,40.9553,22.346
1980-01-06 00:19:52,1,-3.59286,3.47143,-8.45714,0.502291,1,1,30268.5,34983.0,1690,0.78844643,4.3852501,172.95703,293.59375,3.26682,394.226,6.98915,-61.1159,22.3539,24.0318
1980-01-06 00:20:33,1,-3.49231,3.85385,-8.39231,0.446419,1,1,24201.1,34883.4,1690,0.78845221,4.3851738,172.95337,293.59399,3.26284,399.37,18.1383,-59.7812,19.9883,23.9976
1980-01-06 00:21:13,1,-2.38571,3.65714,-8.90714,0.819439,1,1,28551.2,44981.5,1690,0.78845799,4.3850985,172.94556,293.59399,3.15356,403.325,10.9973,-66.3302,21.7105,27.2505
1980-01-06 00:21:54,1,-2.89333,2.83333,-9.02667,0.6456,1,1,27378.4,41115.4,1690,0.78845799,4.3850985,172.94165,293.59399,3.46263,399.999,8.83141,-64.8569,21.2599,26.0532
1980-01-06 00:22:34,1,-2.8,3.41429,-8.81429,0.591263,1,1,27207.5,38651.0,1690,0.78846377,4.3850222,172.93384,293.59399,3.21141,399.673,11.3176,-64.3383,21.1935,25.2603
1980-01-06 00:23:15,1,-3.72,1.82667,-8.91333,0.569834,1,1,27480.0,41762.2,1690,0.78846949,4.3849468,172.92993,293.59399,3.48028,396.96,3.14828,-63.9848,21.2994,26.2573
1980-01-06 00:23:55,1,-3.64667,0.68,-9.12,0.388616,1,1,27296.2,37267.6,1690,0.78846955,4.3849468,172.92212,293.59399,2.81652,390.316,-11.4124,-65.4432,21.228,24.8041
1980-01-06 00:24:36,1,-3.70714,1.17857,-9.02143,0.471807,1,1,27732.8,40408.9,1690,0.78847528,4.3848715,172.91431,293.59399,3.23112,395.435,-13.5305,-67.6097,21.3971,25.8283
1980-01-06 00:25:16,1,-3.74286,0.685714,-8.95,1.25375,1,1,27851.9,41950.2,1690,0.78848106,4.3847952,172.91064,293.59424,3.13327,389.542,-34.6772,-66.0459,21.443,26.3163
1980-01-06 00:25:57,1,-3.18,-0.04,-9.12,0.783326,1,1,29905.8,38310.8,1690,0.78848106,4.3847952,172.90283,293.59424,2.70403,403.911,-25.575,-72.497,22.2196,25.1489
1980-01-06 00:26:37,1,-3.32143,-1.55714,-8.97857,0.516957,1,1,29683.3,34691.8,1690,0.78848684,4.3847198,172.89893,293.59424,3.24801,393.734,-36.3678,-66.8909,22.1368,23.9316
1980-01-06 00:27:18,1,-3.35714,-2.03571,-8.62857,0.69153,1,1,30966.8,34087.9,1690,0.78849262,4.3846445,172.89111,293.59424,2.90845,395.604,-49.1102,-65.8838,22.6103,23.7224
1980-01-06 00:27:58,1,-3.73571,-1.63571,-8.61429,0.673022,1,1,26571.5,51465.9,1690,0.78849262,4.3846445,172.88721,293.59424,3.17771,393.679,-43.9983,-70.2131,20.9443,29.1486
1980-01-06 00:29:19,1,-3.52667,-0.686667,-8.92667,0.837297,1,1,31387.3,44922.4,1690,0.78850418,4.3844929,172.87158,293.59424,2.93368,390.101,-27.5743,-67.3923,22.7633,27.2326
1980-01-06 00:30:00,1,-4.55,-1.67857,-8.28571,0.495387,1,1,31556.2,40894.4,1690,0.78850991,4.3844175,172.86792,293.59448,3.84121,390.306,-40.2391,-60.0805,22.8244,25.983
1980-01-06 00:30:40,1,-4.93571,-1.08571,-8.1,0.38999,1,1,32054.3,32104.9,1690,0.78850996,4.3844175,172.86011,293.59448,3.13998,380.494,-35.5722,-61.003,23.0039,23.022
1980-01-06 00:31:21,1,-4.76429,-2.29286,-7.97143,0.451189,1,1,28974.1,44683.7,1690,0.78851569,4.3843412,172.8562,293.59448,3.29321,377.385,-44.6575,-60.4764,21.8707,27.1602
1980-01-06 00:32:01,1,-4.73571,-1.57143,-8.19286,0.544453,1,1,27910.2,32456.6,1690,0.78852147,4.3842659,172.84839,293.59448,3.06382,379.45,-37.024,-57.0472,21.4654,23.1478
1980-01-06 00:32:42,1,-4.1,-1.62667,-8.35333,2.07279,1,1,30074.8,40606.3,1690,0.78852147,4.3842659,172.84058,293.59448,3.2834,380.063,-41.7804,-52.0436,22.2823,25.8914
1980-01-06 00:33:22,1,-2.03571,-0.985714,-9.72857,0.385251,1,1,31071.2,42428.0,1690,0.78852725,4.3841896,172.83667,293.59448,3.57056,406.723,-37.15,-66.5442,22.6484,26.4657
1980-01-06 00:34:03,1,-2.22667,-1.00667,-9.51333,0.436348,1,1,32296.2,41719.0,1690,0.78853303,4.3841143,172.82886,293.59448,3.22369,404.375,-36.2801,-68.0168,23.0905,26.2437
1980-01-06 00:34:43,1,-2.74286,-1.25714,-9.34286,1.6588,1,1,32428.9,38376.7,1690,0.78853303,4.3841143,172.82495,293.59448,3.1247,412.573,-19.095,-68.7289,23.1379,25.1705
1980-01-06 00:35:24,1,-3.42667,-1.74,-9.00667,0.713427,1,1,27279.6,42418.5,1690,0.78853881,4.3840389,172.81738,293.59473,3.70416,393.433,-39.9651,-61.6993,21.2215,26.4628
1980-01-06 00:36:04,1,-2.16,-0.693333,-9.56,1.18156,1,1,30617.8,42946.2,1690,0.7885446,4.3839626,172.81348,293.59473,3.92675,400.235,-33.2415,-64.1206,22.4825,26.6269
1980-01-06 00:36:45,1,-0.966667,0.733333,-9.84667,1.47205,1,1,31601.8,31773.2,1690,0.7885446,4.3839626,172.80566,293.59473,3.16352,426.469,-15.8333,-71.2057,22.8409,22.9028
1980-01-06 00:37:25,1,-6.31333,-1.47333,-7.12667,0.768375,1,1,31959.3,56819.1,1690,0.78855038,4.3838873,172.79785,293.59473,4.55957,366.168,-43.0999,-43.2944,22.9698,30.6271
1980-01-06 00:38:06,1,-4.36154,-1.33846,-8.54615,2.03723,1,1,23270.9,23879.8,1690,0.7885561,4.383812,172.79395,293.59473,2.87658,375.09,-45.0288,-48.7868,19.6004,19.8551
1980-01-06 00:38:46,1,-4.26429,-0.921429,-8.99286,0.673212,1,1,27849.4,29122.5,1690,0.78855616,4.383812,172.78613,293.59473,3.22997,384.944,-31.3475,-59.0466,21.442,21.9267
1980-01-06 00:40:07,1,-3.08667,-0.38,-9.58,0.503675,1,1,29976.7,32436.5,1690,0.78856766,4.3836603,172.77466,293.59497,2.71467,397.416,-30.5937,-66.157,22.2459,23.1406
1980-01-06 00:40:48,1,-3.57143,-1.04286,-9.25714,0.366172,1,1,29786.7,27725.1,1690,0.78856766,4.3836603,172.76685,293.59497,2.88314,397.124,-27.4104,-64.3297,22.1753,21.3941
1980-01-06 00:41:28,1,-4.12143,-0.642857,-9.07143,0.418025,1,1,26055.2,40372.3,1690,0.78857344,4.383584,172.76294,293.59497,3.54194,387.664,-32.0369,-60.8472,20.7398,25.8166
1980-01-06 00:42:09,1,-2.90667,-0.733333,-9.54,0.770224,1,1,28019.5,35054.3,1690,0.78857923,4.3835087,172.75513,293.59497,3.45155,394.516,-23.1594,-63.134,21.5074,24.0563
1980-01-06 00:42:49,1,-2.77333,-0.426667,-9.54,1.00315,1,1,27157.9,29414.1,1690,0.78857923,4.3835087,172.75122,293.59497,2.64893,393.586,-29.152,-64.863,21.1741,22.0361
1980-01-06 00:43:30,1,-2.35,-0.821429,-9.62857,0.594447,1,1,29990.8,36842.9,1690,0.78858501,4.3834333,172.74341,293.59497,3.02238,403.509,-28.2668,-68.6703,22.2511,24.6624
1980-01-06 00:44:10,1,-2.09333,-2.10667,-9.35333,0.94784,1,1,33618.5,49648.7,1690,0.78859079,4.383357,172.7395,293.59497,3.45108,404.192,-50.1794,-68.033,23.5585,28.6294
1980-01-06 00:44:51,1,-1.74,0.54,-9.64667,2.09904,1,1,36509.5,48936.2,1690,0.78859079,4.383357,172.73169,293.59497,3.16177,401.188,-28.8026,-69.9417,24.5505,28.4232
1980-01-06 00:45:31,1,-1.2,2.17143,-9.75714,0.756064,1,1,29508.1,53440.2,1690,0.78859657,4.3832817,172.72412,293.59521,3.50571,407.997,2.93269,-65.252,22.0713,29.7024
1980-01-06 00:46:12,1,-0.113333,3.62,-9.4,1.28689,1,1,41982.0,70613.9,1690,0.78860229,4.3832064,172.72021,293.59521,3.71004,422.368,12.876,-70.4985,26.3263,34.1431
1980-01-06 00:46:52,1,-1.35625,1.7,-9.74375,1.30093,1,1,34580.9,47668.7,1690,0.78860229,4.3832064,172.7124,293.59521,3.72818,399.641,-1.89606,-67.3236,23.8933,28.0527
1980-01-06 00:47:33,1,-0.166667,1.64,-9.94667,0.612463,1,1,21972.5,55912.4,1690,0.78860807,4.3831301,172.7085,293.59521,2.8196,420.45,-5.81693,-81.4974,19.0457,30.3817
1980-01-06 00:48:13,1,-1.01333,1.56,-9.92667,0.68909,1,1,42627.9,64823.5,1690,0.78861386,4.3830547,172.70068,293.59521,3.45574,406.525,-1.42749,-72.2161,26.528,32.7133
1980-01-06 00:48:54,1,-0.05,1.10625,-10.05,0.603602,1,1,39613.6,61958.4,1690,0.78861386,4.3830547,172.69678,293.59521,2.81627,419.506,-2.9787,-76.1804,25.5729,31.9822
1980-01-06 00:49:34,1,-1.55,0.857143,-9.85714,1.07317,1,1,33196.4,46633.2,1690,0.78861964,4.3829794,172.68896,293.59521,2.91823,400.116,-14.6905,-66.9052,23.4101,27.7463
1980-01-06 00:50:15,-1,nan,nan,nan,nan,1,4,nan,nan,1690,0.78862542,4.3829031,172.6814,293.59546,nan,nan,nan,nan,nan,nan
1980-01-06 00:50:55,1,-2.67857,3.49286,-8.91429,0.887613,1,1,29358.6,60585.1,1690,0.78862542,4.3829031,172.67749,293.59546,3.18874,404.216,3.27533,-71.6174,22.0154,31.6258
1980-01-06 00:51:36,-1,nan,nan,nan,nan,1,4,nan,nan,1690,0.7886312,4.3828278,172.66968,293.59546,nan,nan,nan,nan,nan,nan
1980-01-06 00:52:16,1,-2.9,2.73571,-9.21429,0.409641,1,1,18353.5,38217.4,1690,0.78863698,4.3827515,172.66577,293.59546,2.94705,392.443,0.733379,-73.5456,17.4067,25.1182
1980-01-06 00:52:57,1,-2.76667,2.99333,-9.30667,1.39025,1,1,27650.4,49496.8,1690,0.78863698,4.3827515,172.65796,293.59546,3.57704,380.364,-3.24861,-62.331,21.3653,28.5856
1980-01-06 00:53:37,1,-2.58571,3.03571,-9.40714,0.774531,1,1,25167.3,44589.8,1690,0.7886427,4.3826761,172.65405,293.59546,2.83338,392.669,2.18841,-71.9534,20.3834,27.1316
1980-01-06 00:54:18,1,-0.635714,3.17143,-9.75,0.532897,1,1,37186.9,55653.2,1690,0.78864849,4.3826008,172.64624,293.59546,3.24544,424.18,5.79134,-71.8439,24.7772,30.3112
1980-01-06 00:54:58,1,-3.85333,3.61333,-8.45333,1.79243,1,1,32713.8,48865.9,1690,0.78864849,4.3826008,172.63843,293.59546,3.06765,366.796,18.2105,-51.7146,23.2393,28.4028
1980-01-06 00:55:39,1,-2.61538,4.3,-8.86923,0.686385,1,1,28524.4,54853.3,1690,0.78865427,4.3825245,172.63477,293.5957,3.88898,394.865,19.9651,-64.4361,21.7003,30.0926
1980-01-06 00:56:19,1,-1.84,2.38667,-9.62667,0.555138,1,1,31196.9,59414.2,1690,0.78866005,4.3824492,172.62695,293.5957,3.4707,403.123,6.04135,-69.3923,22.6941,31.3187
1980-01-06 00:57:00,1,-0.84,3.02667,-9.53333,0.606557,1,1,38000.9,61018.2,1690,0.78866583,4.3823738,172.62305,293.5957,3.05683,412.574,4.97783,-72.884,25.0469,31.7386
1980-01-06 00:57:40,1,-0.8,3.43571,-9.40714,0.574545,1,1,40939.4,68179.0,1690,0.78866583,4.3823738,172.61523,293.5957,3.36756,412.772,8.47135,-72.3379,25.9973,33.5493
1980-01-06 00:58:21,1,-0.0866667,3.88667,-9.20667,0.515364,1,1,36560.2,72022.2,1690,0.78867161,4.3822975,172.60742,293.5957,3.43259,413.413,18.6439,-69.7851,24.5676,34.4819
1980-01-06 00:59:01,1,-1.1,1.65,-9.5875,1.93031,1,1,56621.8,44086.8,1690,0.78867739,4.3822222,172.60352,293.5957,2.54852,406.963,-7.11762,-74.8214,30.5738,26.9782
1980-01-06 00:59:42,1,-1.31333,1.3,-9.95333,0.673036,1,1,37476.9,51512.8,1690,0.78867739,4.3822222,172.5957,293.5957,2.73603,409.136,-3.2722,-72.2636,24.8737,29.1619
1980-01-06 01:00:22,1,-1.44667,0.44,-9.86,0.626596,1,1,40754.9,55265.8,1690,0.78868318,4.3821468,172.59204,293.59595,3.133,405.362,-21.6166,-73.4629,25.9387,30.2055
1980-01-06 01:01:03,-1,nan,nan,nan,nan,1,4,nan,nan,1690,0.7886889,4.3820705,172.58423,293.59595,nan,nan,nan,nan,nan,nan
1980-01-06 01:01:43,1,-1.18571,7.10714,-7.22143,1.52151,1,1,41177.1,66506.7,1690,0.7886889,4.3820705,172.58032,293.59595,3.32011,405.735,39.0803,-53.0552,26.0727,33.1353
1980-01-06 01:02:24,1,-1.6,7.48667,-6.94,0.397772,1,1,30187.5,44119.2,1690,0.78869468,4.3819952,172.57251,293.59595,3.12597,404.846,45.8468,-45.5443,22.324,26.9881
1980-01-06 01:03:04,1,-1.14286,8.06429,-6.48571,0.488699,1,1,33024.2,46362.7,1690,0.78870046,4.3819199,172.5647,293.59595,3.10296,412.949,48.0947,-43.0193,23.3493,27.6657
1980-01-06 01:03:45,1,-1.82667,6.66667,-7.54667,0.92376,1,1,39223.0,53901.1,1690,0.78870046,4.3819199,172.56079,293.59595,3.52625,400.865,34.1357,-53.9151,25.4465,29.8302
1980-01-06 01:04:25,1,-1.36667,6.27333,-8.00667,0.565214,1,1,28302.5,40915.8,1690,0.78870624,4.3818436,172.55298,293.59595,3.2465,410.845,29.2937,-57.8133,21.6158,25.9898
1980-01-06 01:05:06,1,-1.95333,8.67333,-4.84,1.13263,1,1,24539.2,43961.6,1690,0.78871197,4.3817682,172.54907,293.59595,3.05141,407.648,48.3071,-44.0537,20.1274,26.9398
1980-01-06 01:05:46,1,-0.492857,9.24286,-3.72143,0.770303,1,1,46155.1,50027.0,1690,0.78871197,4.3817682,172.54126,293.59595,3.48049,415.875,53.5827,-21.7266,27.6037,28.7382
1980-01-06 01:06:27,1,-0.0733333,8.96667,-4.53333,0.770973,1,1,34022.5,44429.7,1690,0.78871775,4.3816929,172.53369,293.59619,3.47687,412.943,51.7561,-27.4161,23.6996,27.0829
1980-01-06 01:07:07,1,-0.9,8.29286,-5.55714,1.06381,1,1,26827.3,37314.4,1690,0.78872353,4.3816166,172.52979,293.59619,3.56816,409.758,46.8034,-32.1492,21.0449,24.8197
1980-01-06 01:07:47,1,-0.62,8.07333,-5.36667,0.453627,1,1,35508.8,45522.8,1690,0.78872353,4.3816166,172.52197,293.59619,3.23476,412.307,51.6131,-40.1676,24.2117,27.414
1980-01-06 01:08:27,1,-0.44,7.35333,-6.28,0.82935,1,1,35001.2,59371.6,1690,0.78872931,4.3815413,172.51807,293.59619,3.15885,411.015,42.2977,-42.2663,24.0381,31.3074
1980-01-06 01:09:08,1,1.17857,5.85714,-7.74286,0.426961,1,1,32529.7,41217.1,1690,0.78873509,4.3814659,172.51025,293.59619,3.62617,388.768,48.8308,-57.6351,23.1738,26.0854
1980-01-06 01:09:48,1,-0.425,3.23125,-9.15625,0.983099,1,1,21994.0,38123.5,1690,0.78873509,4.381465,172.50635,293.59619,2.75943,416.139,-1.23587,-79.2924,19.055,25.0873
1980-01-06 01:10:30,1,-0.0133333,2.56667,-9.3,0.79123,1,1,45564.4,56785.7,1690,0.78874081,4.3813896,172.49854,293.59619,2.93121,411.422,8.83001,-74.0354,27.4265,30.618
1980-01-06 01:11:10,1,-1.07857,4.37857,-8.26429,0.340093,1,1,36893.2,62626.6,1690,0.7887466,4.3813143,172.49097,293.59644,3.11315,406.856,24.1088,-66.7482,24.6792,32.1542
1980-01-06 01:11:51,1,-1.76667,5.66,-7.39333,0.644912,1,1,40368.3,39936.3,1690,0.7887466,4.3813143,172.48706,293.59644,2.8359,400.804,30.7809,-58.0526,25.8153,25.6768
1980-01-06 01:12:31,1,-2.42,6.16667,-6.64,0.509466,1,1,37666.9,60123.1,1690,0.78875238,4.3812389,172.47925,293.59644,3.21324,396.868,33.8679,-42.7084,24.9366,31.5049
1980-01-06 01:13:12,1,-2.02857,5.60714,-7.07143,0.564828,1,1,43846.9,79601.3,1690,0.78875816,4.3811626,172.47534,293.59644,3.48934,399.535,29.0215,-53.504,26.9047,36.2508
1980-01-06 01:13:52,1,-1.32143,4.65,-7.64286,0.821708,1,1,51747.8,74818.7,1690,0.78875816,4.3811626,172.46753,293.59644,3.74285,406.147,21.9391,-54.5264,29.2283,35.1449
1980-01-06 01:14:33,1,-2.74,6.58667,-5.76,0.862915,1,1,35871.9,72868.1,1690,0.78876394,4.3810873,172.46362,293.59644,3.48504,397.698,34.6339,-38.063,24.3352,34.6838
1980-01-06 01:15:13,1,-3.33333,4.64667,-6.67333,1.74547,1,1,34167.6,49756.0,1690,0.78876966,4.381012,172.45581,293.59644,2.67574,389.265,0.949223,-59.1887,23.7501,28.6603
1980-01-06 01:15:54,1,-4.01333,6.33333,-4.97333,0.784007,1,1,32556.4,51438.1,1690,0.78876966,4.381011,172.448,293.59644,2.96631,380.204,26.6769,-30.3483,23.1833,29.1407
1980-01-06 01:16:34,1,-4.61538,5.14615,-5.36923,1.71592,1,1,33502.3,57325.1,1690,0.78877544,4.3809357,172.44409,293.59644,3.74673,375.596,23.7497,-21.6573,23.5177,30.7631
1980-01-06 01:17:15,1,-4.18462,5.04615,-5.39231,1.61623,1,1,46360.7,51238.0,1690,0.78878123,4.3808603,172.43652,293.59668,2.55454,393.703,11.183,-58.5676,27.6651,29.084
1980-01-06 01:17:55,1,-4.42857,7.3,-1.90714,1.26032,1,1,26222.8,59501.1,1690,0.78878123,4.3808603,172.43262,293.59668,3.16073,375.948,36.8701,-14.6475,20.8064,31.3415
1980-01-06 01:18:36,1,-3.71538,7.45385,1.90769,0.939659,1,1,40422.8,90352.2,1690,0.78878701,4.380785,172.4248,293.59668,4.91857,376.992,38.2359,39.7136,25.8328,38.6213
1980-01-06 01:19:16,1,-3.70714,7.91429,0.435714,1.64053,1,1,36741.9,61255.7,1690,0.78879273,4.3807087,172.4209,293.59668,4.3265,382.655,42.0925,27.4325,24.6285,31.8003
1980-01-06 01:19:57,1,-2.5,7.91333,0.486667,2.66126,1,1,52724.6,38584.1,1690,0.78879273,4.3807087,172.41309,293.59668,2.94787,377.247,39.4235,-20.0847,29.5029,25.2384
1980-01-06 01:20:37,1,-0.835714,8.75,1.3,1.49062,1,1,41588.0,71199.2,1690,0.78879851,4.3806334,172.40527,293.59668,4.88738,404.619,50.3242,12.183,26.2024,34.2843
1980-01-06 01:21:18,1,-2.22667,7.36667,3.94,1.3431,1,1,51764.8,42004.7,1690,0.78880429,4.380558,172.40137,293.59668,3.08322,412.801,39.7223,49.7851,29.2331,26.3334
1980-01-06 01:21:58,1,-3.75,6.26429,4.6,0.835256,1,1,35763.7,68848.0,1690,0.78880429,4.3805571,172.39355,293.59668,3.75187,387.896,29.868,55.1,24.2985,33.7135
1980-01-06 01:22:39,1,-2.68667,4.95333,6.11333,1.18749,1,1,45282.5,76027.1,1690,0.78881007,4.3804817,172.38989,293.59692,3.84683,393.722,1.3465,74.6206,27.3415,35.4276
1980-01-06 01:23:19,1,-3.6,6.55333,4.47333,0.796939,1,1,35113.8,64229.3,1690,0.78881586,4.3804064,172.38208,293.59692,4.31815,384.781,26.3837,55.3516,24.0767,32.563
1980-01-06 01:24:00,1,-5.15,6.27857,2.85,1.82392,1,1,32632.5,44209.7,1690,0.78882158,4.380331,172.37427,293.59692,3.22212,370.174,25.9278,36.8035,23.2104,27.0157
1980-01-06 01:24:40,1,3.07857,4.97143,6.38571,0.970614,1,1,36322.6,62269.7,1690,0.78882158,4.380331,172.37036,293.59692,3.69303,431.309,22.8638,71.4641,24.4876,32.0624
1980-01-06 01:25:21,1,0.0333333,6.00667,6.22667,0.482494,1,1,44636.3,45197.4,1690,0.78882736,4.3802547,172.36255,293.59692,3.33405,408.22,23.5842,67.2201,27.1457,27.3158
1980-01-06 01:26:01,1,0.00666667,5.82,6.61333,0.479629,1,1,57395.1,38022.3,1690,0.78883314,4.3801794,172.35864,293.59692,3.17872,419.997,18.8499,75.1538,30.7819,25.054
1980-01-06 01:26:42,1,-0.08,5.63333,6.63333,1.02341,1,1,47208.4,47135.6,1690,0.78883314,4.3801794,172.35083,293.59692,3.27017,417.76,18.477,72.6191,27.9169,27.8954
1980-01-06 01:27:22,1,-0.942857,5.47857,6.57857,0.500102,1,1,49114.1,46347.9,1690,0.78883892,4.3801041,172.34692,293.59692,3.08152,403.178,22.561,71.9675,28.4748,27.6613
1980-01-06 01:28:03,1,-0.72,5.19333,6.75333,0.680719,1,1,44132.9,43145.5,1690,0.78884465,4.3800278,172.33936,293.59717,3.20371,400.316,11.4492,77.0588,26.9922,26.6886
1980-01-06 01:28:43,1,-0.614286,5.96429,6.27143,0.477931,1,1,39650.1,54502.6,1690,0.7888447,4.3800278,172.33154,293.59717,3.53351,406.334,26.108,74.3367,25.5847,29.9962
1980-01-06 01:29:24,1,-0.7375,5.7625,6.3125,1.03176,1,1,39812.7,54649.5,1690,0.78885043,4.3799524,172.32764,293.59717,3.75028,400.285,27.7394,70.2606,25.6371,30.0366
1980-01-06 01:30:04,1,-0.557143,5.53571,6.71429,0.819563,1,1,45827.6,51565.1,1690,0.78885621,4.3798771,172.31982,293.59717,3.26252,399.994,10.4783,78.382,27.5056,29.1767
1980-01-06 01:30:45,1,-0.15,6.0,6.39286,0.564692,1,1,45352.3,43170.5,1690,0.78885621,4.3798771,172.31592,293.59717,3.21057,406.545,19.2992,72.0122,27.3626,26.6963
1980-01-06 01:31:25,1,-1.3,5.15714,5.53571,4.01467,1,1,40076.0,58656.4,1690,0.78886199,4.3798008,172.30811,293.59717,3.32771,406.259,13.9023,80.8644,25.7217,31.1183
1980-01-06 01:32:06,-1,nan,nan,nan,nan,1,4,nan,nan,1690,0.78886777,4.3797255,172.30029,293.59717,nan,nan,nan,nan,nan,nan
1980-01-06 01:32:46,1,-4.78462,7.26923,2.51538,0.417091,1,1,34728.2,57286.6,1690,0.78886777,4.3797255,172.29639,293.59717,3.64864,374.6,33.7553,42.8109,23.9441,30.7528
1980-01-06 01:33:27,1,-4.62857,7.4,2.12143,0.826012,1,1,35143.0,57726.2,1690,0.78887349,4.3796501,172.28882,293.59741,4.00289,369.572,37.1342,33.4844,24.0867,30.8706
1980-01-06 01:34:07,1,-3.39286,8.32857,1.32857,0.888274,1,1,42640.2,46992.3,1690,0.78887928,4.3795738,172.28491,293.59741,3.79165,377.221,43.6478,16.9103,26.5318,27.853
1980-01-06 01:34:48,1,-2.99231,8.11538,1.62308,1.79463,1,1,25990.6,42395.5,1690,0.78887928,4.3795738,172.2771,293.59741,3.54493,384.852,50.7295,15.3784,20.7141,26.4556
1980-01-06 01:35:28,1,-2.20714,6.92857,4.49286,2.80239,1,1,38291.5,33345.5,1690,0.78888506,4.3794985,172.27319,293.59741,2.98995,393.608,49.3743,16.4734,25.1425,23.4626
1980-01-06 01:36:09,1,-0.24,7.08,5.62667,1.36453,1,1,64349.3,39207.5,1690,0.78889084,4.3794231,172.26538,293.59741,3.98668,418.505,34.0943,81.8567,32.5934,25.4415
1980-01-06 01:36:49,1,0.26,7.24,5.46667,0.681436,1,1,36472.3,43335.9,1690,0.78889084,4.3794222,172.25757,293.59741,3.49181,423.073,37.0657,74.246,24.538,26.7474
1980-01-06 01:37:30,1,0.50625,5.6,6.9375,1.19182,1,1,28015.5,36176.9,1690,0.78889662,4.3793468,172.25366,293.59741,2.72871,428.561,10.7381,96.0183,21.5059,24.4385
1980-01-06 01:38:51,-1,nan,nan,nan,nan,1,4,nan,nan,1690,0.78890234,4.3792715,172.24194,293.59741,nan,nan,nan,nan,nan,nan